| time (UTC) | temp F | wind direction | speed knots | gust knots | rain 1hr in | rain 24hr in | rain mn in | humidity % | barometer mb |
| 20260507075556 | 50 | 0 | 0.9 | 4.3 | 0.00 | 0.47 | 0.23 | 90 | 1011.7 |
| 20260507075052 | 50 | 0 | 1.7 | 4.3 | 0.00 | 0.47 | 0.23 | 91 | 1011.9 |
| 20260507074559 | 50 | 0 | 0.0 | 0.0 | 0.00 | 0.47 | 0.23 | 91 | 1011.9 |
| 20260507074054 | 50 | 0 | 0.0 | 0.0 | 0.00 | 0.47 | 0.23 | 91 | 1011.8 |
| 20260507073554 | 50 | 0 | 0.0 | 0.0 | 0.00 | 0.47 | 0.23 | 91 | 1012.0 |
| 20260507073054 | 50 | 0 | 0.0 | 0.0 | 0.00 | 0.47 | 0.23 | 91 | 1011.8 |
| 20260507072555 | 50 | 0 | 0.0 | 0.0 | 0.00 | 0.47 | 0.23 | 91 | 1011.8 |
| 20260507072051 | 51 | 0 | 0.0 | 3.5 | 0.00 | 0.47 | 0.23 | 91 | 1011.8 |
| 20260507071601 | 51 | 0 | 0.0 | 7.0 | 0.00 | 0.47 | 0.23 | 91 | 1012.1 |
| 20260507071052 | 51 | 0 | 1.7 | 7.0 | 0.00 | 0.47 | 0.23 | 91 | 1012.1 |
| 20260507070554 | 51 | 299 | 2.6 | 7.8 | 0.00 | 0.47 | 0.23 | 92 | 1012.1 |
| 20260507070057 | 51 | 350 | 2.6 | 7.8 | 0.00 | 0.47 | 0.23 | 92 | 1012.2 |
| 20260507065554 | 52 | 317 | 2.6 | 7.0 | 0.00 | 0.47 | 0.23 | 93 | 1012.2 |
| 20260507065052 | 52 | 343 | 0.0 | 0.0 | 0.00 | 0.47 | 0.23 | 93 | 1012.1 |
| 20260507064610 | 52 | 0 | 0.0 | 0.0 | 0.01 | 0.47 | 0.23 | 93 | 1012.0 |
| 20260507064055 | 52 | 0 | 0.0 | 0.0 | 0.01 | 0.47 | 0.23 | 93 | 1012.0 |
| 20260507063554 | 52 | 0 | 0.0 | 0.0 | 0.01 | 0.47 | 0.23 | 93 | 1012.0 |
| 20260507063059 | 52 | 0 | 0.0 | 0.0 | 0.01 | 0.47 | 0.23 | 93 | 1012.1 |
| 20260507062552 | 52 | 0 | 0.0 | 0.0 | 0.01 | 0.47 | 0.23 | 92 | 1012.1 |
| 20260507062055 | 52 | 0 | 0.0 | 0.0 | 0.01 | 0.47 | 0.23 | 92 | 1012.2 |
| 20260507061553 | 52 | 0 | 0.0 | 0.0 | 0.01 | 0.47 | 0.23 | 92 | 1012.2 |
| 20260507061051 | 52 | 0 | 0.0 | 0.0 | 0.02 | 0.47 | 0.23 | 92 | 1012.3 |
| 20260507060551 | 52 | 0 | 0.0 | 0.0 | 0.03 | 0.47 | 0.23 | 92 | 1012.1 |
| 20260507060058 | 52 | 0 | 0.0 | 0.0 | 0.04 | 0.47 | 0.23 | 92 | 1012.1 |
| 20260507055552 | 52 | 0 | 0.0 | 0.0 | 0.05 | 0.47 | 0.23 | 92 | 1012.2 |
| 20260507055053 | 52 | 0 | 0.0 | 0.0 | 0.08 | 0.47 | 0.23 | 92 | 1012.1 |
| 20260507054608 | 52 | 0 | 0.0 | 0.0 | 0.13 | 0.46 | 0.22 | 91 | 1011.7 |
| 20260507054052 | 52 | 0 | 0.0 | 0.0 | 0.17 | 0.46 | 0.22 | 91 | 1012.0 |
| 20260507053552 | 52 | 0 | 0.0 | 0.0 | 0.19 | 0.46 | 0.22 | 91 | 1011.7 |
| 20260507053052 | 52 | 0 | 0.0 | 0.0 | 0.20 | 0.46 | 0.22 | 91 | 1011.5 |
| 20260507052552 | 52 | 0 | 0.0 | 0.0 | 0.21 | 0.46 | 0.22 | 90 | 1011.7 |
| 20260507052052 | 52 | 0 | 0.0 | 0.0 | 0.21 | 0.46 | 0.22 | 90 | 1012.0 |
| 20260507051555 | 52 | 0 | 0.0 | 0.0 | 0.21 | 0.46 | 0.22 | 90 | 1012.0 |
| 20260507051052 | 52 | 0 | 0.0 | 0.0 | 0.20 | 0.45 | 0.21 | 89 | 1011.9 |
| 20260507050552 | 53 | 0 | 0.0 | 0.0 | 0.19 | 0.44 | 0.20 | 89 | 1012.1 |
| 20260507050100 | 53 | 0 | 0.0 | 0.0 | 0.19 | 0.43 | 0.19 | 89 | 1012.0 |
| 20260507045556 | 53 | 0 | 0.0 | 7.0 | 0.18 | 0.42 | 0.18 | 88 | 1012.3 |
| 20260507045055 | 53 | 0 | 0.0 | 8.7 | 0.15 | 0.38 | 0.14 | 88 | 1012.1 |
| 20260507044555 | 54 | 294 | 2.6 | 8.7 | 0.11 | 0.33 | 0.09 | 87 | 1012.2 |
| 20260507044052 | 54 | 344 | 3.5 | 8.7 | 0.07 | 0.29 | 0.05 | 87 | 1012.2 |
| 20260507043552 | 54 | 0 | 0.0 | 0.0 | 0.05 | 0.27 | 0.03 | 88 | 1012.0 |
| 20260507043101 | 54 | 0 | 0.0 | 0.0 | 0.04 | 0.26 | 0.02 | 88 | 1011.7 |
| 20260507042553 | 54 | 0 | 0.0 | 0.0 | 0.03 | 0.25 | 0.01 | 87 | 1011.7 |
| 20260507042052 | 54 | 0 | 0.0 | 0.0 | 0.03 | 0.25 | 0.01 | 86 | 1011.6 |
| 20260507041605 | 55 | 0 | 0.0 | 0.0 | 0.03 | 0.25 | 0.01 | 86 | 1011.6 |
| 20260507041054 | 55 | 0 | 0.0 | 0.0 | 0.03 | 0.25 | 0.01 | 85 | 1011.7 |
| 20260507040555 | 55 | 0 | 0.0 | 7.8 | 0.03 | 0.25 | 0.01 | 84 | 1011.5 |
| 20260507040100 | 56 | 0 | 0.0 | 7.8 | 0.02 | 0.24 | 0.00 | 83 | 1011.4 |
| 20260507035552 | 56 | 291 | 3.5 | 7.8 | 0.02 | 0.24 | 0.24 | 82 | 1011.2 |
| 20260507035052 | 56 | 342 | 2.6 | 7.8 | 0.01 | 0.23 | 0.23 | 81 | 1011.0 |
| 20260507034607 | 56 | 315 | 1.7 | 6.1 | 0.00 | 0.22 | 0.22 | 81 | 1011.1 |
| 20260507034052 | 56 | 0 | 0.9 | 7.0 | 0.00 | 0.22 | 0.22 | 80 | 1011.3 |
| 20260507033557 | 57 | 0 | 0.9 | 7.8 | 0.00 | 0.22 | 0.22 | 80 | 1011.3 |
| 20260507033055 | 57 | 302 | 2.6 | 7.8 | 0.00 | 0.22 | 0.22 | 79 | 1011.5 |
| 20260507032552 | 57 | 302 | 2.6 | 7.0 | 0.00 | 0.22 | 0.22 | 79 | 1011.5 |
| 20260507032054 | 57 | 315 | 2.6 | 8.7 | 0.00 | 0.22 | 0.22 | 79 | 1011.2 |
| 20260507031604 | 57 | 304 | 2.6 | 8.7 | 0.00 | 0.22 | 0.22 | 79 | 1011.1 |
| 20260507031054 | 57 | 321 | 5.2 | 8.7 | 0.00 | 0.22 | 0.22 | 79 | 1011.2 |
| 20260507030552 | 57 | 311 | 3.5 | 9.6 | 0.00 | 0.22 | 0.22 | 79 | 1011.1 |
| 20260507025551 | 57 | 346 | 4.3 | 11.3 | 0.00 | 0.22 | 0.22 | 80 | 1010.9 |
| 20260507025054 | 58 | 349 | 6.1 | 11.3 | 0.00 | 0.22 | 0.22 | 80 | 1010.8 |
| 20260507024604 | 58 | 350 | 4.3 | 8.7 | 0.00 | 0.22 | 0.22 | 80 | 1010.9 |
| 20260507024053 | 58 | 290 | 1.7 | 7.8 | 0.00 | 0.22 | 0.22 | 81 | 1011.3 |
| 20260507023551 | 58 | 324 | 2.6 | 7.8 | 0.00 | 0.22 | 0.22 | 80 | 1011.1 |
| 20260507023110 | 58 | 323 | 1.7 | 7.0 | 0.00 | 0.22 | 0.22 | 81 | 1011.2 |
| 20260507022551 | 58 | 313 | 2.6 | 7.8 | 0.00 | 0.22 | 0.22 | 81 | 1010.9 |
| 20260507022052 | 58 | 304 | 2.6 | 9.6 | 0.00 | 0.22 | 0.22 | 80 | 1011.1 |
| 20260507021557 | 58 | 336 | 1.7 | 9.6 | 0.00 | 0.22 | 0.22 | 80 | 1010.9 |
| 20260507021053 | 58 | 311 | 3.5 | 12.2 | 0.00 | 0.22 | 0.22 | 80 | 1010.9 |
| 20260507020552 | 58 | 322 | 4.3 | 12.2 | 0.00 | 0.22 | 0.22 | 80 | 1010.8 |
| 20260507020059 | 59 | 331 | 2.6 | 8.7 | 0.00 | 0.22 | 0.22 | 80 | 1010.9 |
| 20260507015551 | 59 | 316 | 3.5 | 13.9 | 0.00 | 0.22 | 0.22 | 81 | 1011.0 |
| 20260507015052 | 59 | 329 | 3.5 | 13.9 | 0.00 | 0.22 | 0.22 | 81 | 1011.1 |
| 20260507014606 | 59 | 296 | 3.5 | 9.6 | 0.00 | 0.22 | 0.22 | 82 | 1011.1 |
| 20260507014052 | 59 | 333 | 2.6 | 7.0 | 0.00 | 0.22 | 0.22 | 82 | 1011.2 |
| 20260507013551 | 60 | 350 | 0.9 | 5.2 | 0.00 | 0.22 | 0.22 | 83 | 1011.1 |
| 20260507013112 | 60 | 342 | 0.0 | 4.3 | 0.00 | 0.22 | 0.22 | 84 | 1011.1 |
| 20260507012551 | 60 | 0 | 0.9 | 4.3 | 0.01 | 0.22 | 0.22 | 84 | 1011.2 |
| 20260507012052 | 60 | 0 | 0.0 | 4.3 | 0.01 | 0.22 | 0.22 | 84 | 1011.3 |
| 20260507011556 | 60 | 0 | 0.0 | 4.3 | 0.01 | 0.22 | 0.22 | 83 | 1011.2 |
| 20260507011051 | 60 | 0 | 1.7 | 7.8 | 0.01 | 0.22 | 0.22 | 84 | 1011.4 |
| 20260507010552 | 60 | 304 | 2.6 | 7.8 | 0.01 | 0.22 | 0.22 | 84 | 1011.3 |
| 20260507010054 | 60 | 298 | 2.6 | 7.8 | 0.01 | 0.22 | 0.22 | 83 | 1011.0 |
| 20260507005552 | 60 | 284 | 3.5 | 7.0 | 0.01 | 0.22 | 0.22 | 84 | 1010.9 |
| 20260507005051 | 60 | 288 | 4.3 | 7.8 | 0.01 | 0.22 | 0.22 | 84 | 1011.1 |
| 20260507004552 | 60 | 278 | 4.3 | 8.7 | 0.01 | 0.22 | 0.22 | 84 | 1010.9 |
| 20260507004052 | 61 | 303 | 4.3 | 8.7 | 0.01 | 0.22 | 0.22 | 84 | 1010.6 |
| 20260507003552 | 61 | 300 | 2.6 | 9.6 | 0.01 | 0.22 | 0.22 | 84 | 1010.4 |
| 20260507003057 | 61 | 279 | 4.3 | 11.3 | 0.01 | 0.22 | 0.22 | 85 | 1010.5 |
| 20260507002552 | 61 | 324 | 7.0 | 11.3 | 0.00 | 0.21 | 0.21 | 85 | 1010.3 |
| 20260507002052 | 61 | 298 | 5.2 | 9.6 | 0.00 | 0.21 | 0.21 | 87 | 1010.6 |
| 20260507001612 | 62 | 296 | 5.2 | 12.2 | 0.00 | 0.21 | 0.21 | 88 | 1010.7 |
| 20260507001054 | 62 | 269 | 6.1 | 12.2 | 0.00 | 0.21 | 0.21 | 89 | 1010.2 |
| 20260507000551 | 63 | 277 | 4.3 | 7.8 | 0.00 | 0.21 | 0.21 | 91 | 1009.9 |
| 20260507000059 | 63 | 286 | 4.3 | 7.8 | 0.00 | 0.21 | 0.21 | 91 | 1009.7 |
| 20260506235552 | 63 | 290 | 3.5 | 7.8 | 0.00 | 0.21 | 0.21 | 91 | 1009.6 |
| 20260506235054 | 63 | 281 | 3.5 | 7.8 | 0.00 | 0.21 | 0.21 | 91 | 1009.4 |
| 20260506234555 | 63 | 288 | 4.3 | 7.0 | 0.01 | 0.21 | 0.21 | 91 | 1009.2 |
| 20260506234054 | 63 | 263 | 4.3 | 7.0 | 0.02 | 0.21 | 0.21 | 91 | 1009.2 |
| 20260506233552 | 63 | 267 | 3.5 | 7.0 | 0.03 | 0.21 | 0.21 | 91 | 1009.3 |
| 20260506233059 | 63 | 263 | 2.6 | 6.1 | 0.03 | 0.21 | 0.21 | 91 | 1008.9 |
| 20260506232551 | 64 | 286 | 1.7 | 4.3 | 0.03 | 0.21 | 0.21 | 91 | 1008.8 |
| 20260506232052 | 64 | 286 | 1.7 | 4.3 | 0.03 | 0.21 | 0.21 | 91 | 1008.8 |
| 20260506231554 | 64 | 288 | 2.6 | 7.0 | 0.03 | 0.21 | 0.21 | 91 | 1009.0 |
| 20260506231053 | 64 | 300 | 3.5 | 7.0 | 0.03 | 0.21 | 0.21 | 91 | 1008.9 |
| 20260506230552 | 64 | 245 | 1.7 | 7.0 | 0.03 | 0.21 | 0.21 | 90 | 1008.9 |
| 20260506230055 | 64 | 258 | 3.5 | 7.0 | 0.03 | 0.21 | 0.21 | 90 | 1008.9 |
| 20260506225555 | 64 | 238 | 3.5 | 7.8 | 0.03 | 0.21 | 0.21 | 89 | 1008.8 |
| 20260506225052 | 64 | 254 | 1.7 | 7.8 | 0.03 | 0.21 | 0.21 | 88 | 1009.0 |
| 20260506224604 | 65 | 254 | 3.5 | 7.8 | 0.02 | 0.20 | 0.20 | 88 | 1009.0 |
| 20260506224052 | 65 | 258 | 2.6 | 9.6 | 0.01 | 0.19 | 0.19 | 88 | 1008.9 |
| 20260506223551 | 65 | 221 | 2.6 | 9.6 | 0.00 | 0.18 | 0.18 | 87 | 1008.9 |
| 20260506223115 | 65 | 259 | 2.6 | 9.6 | 0.00 | 0.18 | 0.18 | 86 | 1009.0 |
| 20260506222552 | 66 | 250 | 1.7 | 10.4 | 0.00 | 0.18 | 0.18 | 86 | 1008.6 |
| 20260506222054 | 66 | 251 | 3.5 | 10.4 | 0.00 | 0.18 | 0.18 | 85 | 1008.8 |
| 20260506221559 | 66 | 252 | 2.6 | 8.7 | 0.00 | 0.18 | 0.18 | 85 | 1008.7 |
| 20260506221053 | 66 | 252 | 2.6 | 8.7 | 0.00 | 0.18 | 0.18 | 85 | 1008.7 |
| 20260506220552 | 66 | 247 | 2.6 | 7.8 | 0.00 | 0.18 | 0.18 | 85 | 1008.7 |
| 20260506220056 | 66 | 0 | 1.7 | 8.7 | 0.00 | 0.18 | 0.18 | 84 | 1008.5 |
| 20260506215552 | 66 | 223 | 3.5 | 8.7 | 0.00 | 0.18 | 0.18 | 84 | 1008.6 |
| 20260506215051 | 66 | 261 | 3.5 | 10.4 | 0.00 | 0.18 | 0.18 | 84 | 1008.4 |
| 20260506214604 | 66 | 264 | 4.3 | 10.4 | 0.00 | 0.18 | 0.18 | 84 | 1008.4 |
| 20260506214054 | 66 | 261 | 2.6 | 7.0 | 0.00 | 0.18 | 0.18 | 84 | 1008.2 |
| 20260506213556 | 66 | 234 | 0.0 | 7.0 | 0.00 | 0.18 | 0.18 | 84 | 1008.1 |
| 20260506213053 | 66 | 226 | 0.9 | 7.0 | 0.00 | 0.18 | 0.18 | 84 | 1008.0 |
| 20260506212552 | 66 | 0 | 1.7 | 7.0 | 0.00 | 0.18 | 0.18 | 84 | 1007.9 |
| 20260506212056 | 66 | 228 | 2.6 | 6.1 | 0.00 | 0.18 | 0.18 | 84 | 1008.1 |
| 20260506211557 | 67 | 214 | 0.9 | 6.1 | 0.00 | 0.18 | 0.18 | 84 | 1008.0 |
| 20260506211052 | 67 | 219 | 0.0 | 7.0 | 0.00 | 0.18 | 0.18 | 84 | 1008.0 |
| 20260506210552 | 67 | 223 | 2.6 | 10.4 | 0.00 | 0.18 | 0.18 | 83 | 1008.0 |
| 20260506205551 | 67 | 231 | 4.3 | 10.4 | 0.00 | 0.18 | 0.18 | 84 | 1007.8 |
| 20260506205051 | 67 | 243 | 3.5 | 7.0 | 0.00 | 0.18 | 0.18 | 84 | 1007.7 |
| 20260506204556 | 67 | 262 | 3.5 | 7.0 | 0.00 | 0.18 | 0.18 | 85 | 1007.7 |
| 20260506204052 | 67 | 273 | 0.9 | 7.0 | 0.00 | 0.18 | 0.18 | 85 | 1007.8 |
| 20260506203554 | 66 | 258 | 0.9 | 7.0 | 0.00 | 0.18 | 0.18 | 87 | 1007.9 |
| 20260506203101 | 66 | 0 | 0.9 | 7.0 | 0.00 | 0.18 | 0.18 | 87 | 1007.9 |
| 20260506202553 | 65 | 228 | 1.7 | 6.1 | 0.00 | 0.18 | 0.18 | 87 | 1008.0 |
| 20260506202053 | 65 | 237 | 0.9 | 6.1 | 0.00 | 0.18 | 0.18 | 87 | 1007.9 |
| 20260506201555 | 65 | 0 | 0.9 | 6.1 | 0.00 | 0.18 | 0.18 | 87 | 1008.0 |
| 20260506201053 | 65 | 0 | 0.9 | 6.1 | 0.00 | 0.18 | 0.18 | 86 | 1008.0 |
| 20260506200553 | 65 | 269 | 1.7 | 8.7 | 0.00 | 0.18 | 0.18 | 87 | 1008.0 |
| 20260506200136 | 65 | 241 | 1.7 | 8.7 | 0.00 | 0.18 | 0.18 | 87 | 1008.1 |
| 20260506195552 | 65 | 249 | 4.3 | 8.7 | 0.00 | 0.18 | 0.18 | 87 | 1008.1 |
| 20260506195052 | 65 | 255 | 4.3 | 8.7 | 0.00 | 0.18 | 0.18 | 87 | 1007.9 |
| 20260506194609 | 65 | 250 | 3.5 | 9.6 | 0.00 | 0.18 | 0.18 | 87 | 1008.0 |
| 20260506194051 | 65 | 243 | 4.3 | 9.6 | 0.00 | 0.18 | 0.18 | 87 | 1008.1 |
| 20260506193551 | 65 | 261 | 3.5 | 9.6 | 0.00 | 0.18 | 0.18 | 87 | 1008.0 |
| 20260506193131 | 65 | 209 | 5.2 | 10.4 | 0.00 | 0.18 | 0.18 | 86 | 1008.1 |
| 20260506192553 | 65 | 251 | 5.2 | 10.4 | 0.00 | 0.18 | 0.18 | 86 | 1008.2 |
| 20260506192054 | 65 | 261 | 2.6 | 9.6 | 0.00 | 0.18 | 0.18 | 86 | 1008.1 |
| 20260506191601 | 65 | 257 | 6.1 | 12.2 | 0.00 | 0.18 | 0.18 | 85 | 1008.2 |
| 20260506191052 | 66 | 241 | 4.3 | 13.9 | 0.00 | 0.18 | 0.18 | 85 | 1008.2 |
| 20260506190553 | 66 | 246 | 7.8 | 13.9 | 0.00 | 0.18 | 0.18 | 86 | 1008.2 |
| 20260506185553 | 65 | 252 | 3.5 | 7.8 | 0.00 | 0.18 | 0.18 | 89 | 1008.1 |
| 20260506185052 | 64 | 243 | 3.5 | 7.8 | 0.00 | 0.18 | 0.18 | 87 | 1008.2 |
| 20260506184608 | 64 | 202 | 2.6 | 7.8 | 0.00 | 0.18 | 0.18 | 87 | 1008.3 |
| 20260506184053 | 64 | 254 | 2.6 | 8.7 | 0.00 | 0.18 | 0.18 | 87 | 1008.4 |
| 20260506183552 | 64 | 218 | 2.6 | 8.7 | 0.00 | 0.18 | 0.18 | 87 | 1008.4 |
| 20260506183113 | 64 | 243 | 1.7 | 7.8 | 0.00 | 0.18 | 0.18 | 87 | 1008.3 |
| 20260506182551 | 64 | 0 | 2.6 | 10.4 | 0.00 | 0.18 | 0.18 | 86 | 1008.4 |
| 20260506182053 | 64 | 240 | 3.5 | 10.4 | 0.00 | 0.18 | 0.18 | 86 | 1008.4 |
| 20260506181610 | 64 | 230 | 2.6 | 8.7 | 0.00 | 0.18 | 0.18 | 86 | 1008.5 |
| 20260506181053 | 64 | 221 | 2.6 | 9.6 | 0.00 | 0.18 | 0.18 | 86 | 1008.6 |
| 20260506180552 | 64 | 239 | 3.5 | 10.4 | 0.00 | 0.18 | 0.18 | 86 | 1008.5 |
| 20260506180110 | 64 | 254 | 3.5 | 10.4 | 0.00 | 0.18 | 0.18 | 87 | 1008.6 |
| 20260506175554 | 63 | 266 | 3.5 | 10.4 | 0.00 | 0.18 | 0.18 | 87 | 1008.6 |
| 20260506175051 | 63 | 252 | 4.3 | 10.4 | 0.00 | 0.18 | 0.18 | 87 | 1008.6 |
| 20260506174609 | 63 | 257 | 2.6 | 10.4 | 0.00 | 0.18 | 0.18 | 87 | 1008.6 |
| 20260506174054 | 63 | 263 | 2.6 | 9.6 | 0.00 | 0.18 | 0.18 | 88 | 1008.6 |
| 20260506173551 | 63 | 209 | 3.5 | 9.6 | 0.00 | 0.18 | 0.18 | 88 | 1008.5 |
| 20260506173123 | 63 | 163 | 1.7 | 7.8 | 0.00 | 0.18 | 0.18 | 88 | 1008.6 |
| 20260506172558 | 63 | 139 | 2.6 | 7.8 | 0.00 | 0.18 | 0.18 | 89 | 1008.6 |
| 20260506172053 | 62 | 207 | 1.7 | 10.4 | 0.00 | 0.18 | 0.18 | 89 | 1008.6 |
| 20260506171603 | 62 | 0 | 3.5 | 10.4 | 0.00 | 0.18 | 0.18 | 89 | 1008.7 |
| 20260506171051 | 62 | 228 | 3.5 | 10.4 | 0.00 | 0.18 | 0.18 | 89 | 1008.6 |
| 20260506170553 | 62 | 164 | 4.3 | 9.6 | 0.00 | 0.18 | 0.18 | 89 | 1008.8 |
| 20260506170059 | 62 | 222 | 1.7 | 9.6 | 0.00 | 0.18 | 0.18 | 89 | 1008.8 |
| 20260506165551 | 62 | 144 | 2.6 | 9.6 | 0.00 | 0.18 | 0.18 | 89 | 1008.9 |
| 20260506165051 | 62 | 238 | 2.6 | 8.7 | 0.00 | 0.18 | 0.18 | 90 | 1008.7 |
| 20260506164555 | 62 | 238 | 3.5 | 8.7 | 0.00 | 0.18 | 0.18 | 90 | 1008.7 |
| 20260506164051 | 62 | 205 | 2.6 | 9.6 | 0.00 | 0.18 | 0.18 | 90 | 1008.7 |
| 20260506163551 | 62 | 219 | 2.6 | 11.3 | 0.00 | 0.18 | 0.18 | 90 | 1008.7 |
| 20260506163103 | 62 | 225 | 2.6 | 11.3 | 0.00 | 0.18 | 0.18 | 91 | 1008.7 |
| 20260506162555 | 61 | 171 | 2.6 | 9.6 | 0.00 | 0.18 | 0.18 | 91 | 1008.7 |
| 20260506162053 | 61 | 230 | 4.3 | 9.6 | 0.00 | 0.18 | 0.18 | 91 | 1008.8 |
| 20260506161558 | 61 | 243 | 2.6 | 9.6 | 0.00 | 0.18 | 0.18 | 92 | 1008.9 |
| 20260506161052 | 61 | 158 | 1.7 | 9.6 | 0.01 | 0.18 | 0.18 | 92 | 1008.8 |
| 20260506160555 | 61 | 209 | 1.7 | 8.7 | 0.01 | 0.18 | 0.18 | 92 | 1009.0 |
| 20260506160107 | 61 | 227 | 1.7 | 8.7 | 0.01 | 0.18 | 0.18 | 92 | 1008.9 |
| 20260506155554 | 61 | 212 | 1.7 | 8.7 | 0.02 | 0.18 | 0.18 | 92 | 1009.0 |
| 20260506155054 | 61 | 219 | 1.7 | 8.7 | 0.02 | 0.18 | 0.18 | 92 | 1008.9 |
| 20260506154553 | 61 | 198 | 1.7 | 10.4 | 0.04 | 0.18 | 0.18 | 92 | 1008.8 |
| 20260506154052 | 61 | 225 | 3.5 | 10.4 | 0.06 | 0.18 | 0.18 | 93 | 1008.9 |
| 20260506153552 | 61 | 0 | 3.5 | 10.4 | 0.07 | 0.18 | 0.18 | 93 | 1008.7 |
| 20260506153055 | 61 | 229 | 1.7 | 9.6 | 0.08 | 0.18 | 0.18 | 93 | 1008.7 |
| 20260506152552 | 61 | 130 | 1.7 | 9.6 | 0.09 | 0.18 | 0.18 | 93 | 1008.7 |
| 20260506152053 | 61 | 123 | 2.6 | 13.9 | 0.09 | 0.18 | 0.18 | 93 | 1008.8 |
| 20260506151554 | 61 | 147 | 6.1 | 13.9 | 0.10 | 0.18 | 0.18 | 92 | 1008.3 |
| 20260506151051 | 60 | 155 | 6.1 | 13.0 | 0.09 | 0.17 | 0.17 | 92 | 1008.3 |
| 20260506150553 | 60 | 145 | 8.7 | 14.8 | 0.09 | 0.17 | 0.17 | 92 | 1008.8 |
| 20260506150058 | 61 | 163 | 6.1 | 14.8 | 0.09 | 0.17 | 0.17 | 92 | 1008.9 |
| 20260506145555 | 60 | 162 | 2.6 | 10.4 | 0.08 | 0.16 | 0.16 | 92 | 1009.2 |
| 20260506145053 | 60 | 138 | 2.6 | 9.6 | 0.09 | 0.16 | 0.16 | 92 | 1009.5 |
| 20260506144555 | 60 | 146 | 1.7 | 9.6 | 0.07 | 0.14 | 0.14 | 91 | 1009.5 |
| 20260506144053 | 61 | 233 | 2.6 | 9.6 | 0.06 | 0.12 | 0.12 | 91 | 1009.7 |
| 20260506143553 | 61 | 234 | 2.6 | 8.7 | 0.06 | 0.11 | 0.11 | 91 | 1009.7 |
| 20260506143055 | 61 | 0 | 1.7 | 8.7 | 0.05 | 0.10 | 0.10 | 91 | 1009.6 |
| 20260506142552 | 61 | 0 | 1.7 | 7.8 | 0.05 | 0.09 | 0.09 | 91 | 1009.6 |
| 20260506142053 | 61 | 134 | 2.6 | 9.6 | 0.06 | 0.09 | 0.09 | 91 | 1009.5 |
| 20260506141553 | 61 | 235 | 1.7 | 10.4 | 0.05 | 0.08 | 0.08 | 91 | 1009.5 |
| 20260506141052 | 61 | 136 | 2.6 | 11.3 | 0.05 | 0.08 | 0.08 | 91 | 1009.4 |
| 20260506140555 | 61 | 105 | 3.5 | 11.3 | 0.06 | 0.08 | 0.08 | 91 | 1009.3 |
| 20260506140053 | 61 | 134 | 4.3 | 10.4 | 0.06 | 0.08 | 0.08 | 91 | 1009.1 |
| 20260506135551 | 61 | 141 | 3.5 | 8.7 | 0.06 | 0.08 | 0.08 | 91 | 1009.1 |
| 20260506135051 | 61 | 0 | 3.5 | 12.2 | 0.05 | 0.07 | 0.07 | 90 | 1009.1 |
| 20260506134618 | 61 | 128 | 4.3 | 13.0 | 0.05 | 0.07 | 0.07 | 90 | 1009.1 |
| 20260506134055 | 61 | 173 | 3.5 | 13.0 | 0.04 | 0.06 | 0.06 | 89 | 1009.0 |
| 20260506133552 | 61 | 152 | 7.0 | 11.3 | 0.04 | 0.05 | 0.05 | 89 | 1009.1 |
| 20260506133059 | 61 | 146 | 5.2 | 11.3 | 0.03 | 0.04 | 0.04 | 89 | 1009.1 |
| 20260506132551 | 61 | 196 | 6.1 | 13.0 | 0.03 | 0.04 | 0.04 | 88 | 1009.2 |
| 20260506132051 | 61 | 122 | 3.5 | 13.0 | 0.03 | 0.03 | 0.03 | 88 | 1009.1 |
| 20260506131609 | 61 | 0 | 5.2 | 10.4 | 0.03 | 0.03 | 0.03 | 87 | 1009.2 |
| 20260506131053 | 61 | 126 | 3.5 | 10.4 | 0.03 | 0.03 | 0.03 | 87 | 1009.3 |
| 20260506130551 | 61 | 165 | 3.5 | 13.0 | 0.02 | 0.02 | 0.02 | 87 | 1009.3 |
| 20260506130057 | 61 | 146 | 3.5 | 13.0 | 0.02 | 0.02 | 0.02 | 87 | 1009.3 |
| 20260506125554 | 61 | 164 | 5.2 | 12.2 | 0.02 | 0.02 | 0.02 | 86 | 1009.2 |
| 20260506125054 | 62 | 216 | 4.3 | 12.2 | 0.02 | 0.02 | 0.02 | 86 | 1009.2 |
| 20260506124554 | 62 | 199 | 4.3 | 11.3 | 0.02 | 0.02 | 0.02 | 85 | 1009.1 |
| 20260506124055 | 62 | 153 | 3.5 | 11.3 | 0.02 | 0.02 | 0.02 | 85 | 1009.3 |
| 20260506123553 | 62 | 157 | 2.6 | 8.7 | 0.01 | 0.01 | 0.01 | 85 | 1009.2 |
| 20260506123056 | 62 | 206 | 2.6 | 14.8 | 0.01 | 0.01 | 0.01 | 84 | 1009.3 |
| 20260506122553 | 62 | 147 | 6.1 | 14.8 | 0.01 | 0.01 | 0.01 | 83 | 1009.4 |
| 20260506122050 | 63 | 174 | 1.7 | 9.6 | 0.00 | 0.00 | 0.00 | 82 | 1009.4 |
| 20260506121605 | 63 | 0 | 2.6 | 11.3 | 0.00 | 0.00 | 0.00 | 81 | 1009.6 |
| 20260506121050 | 63 | 0 | 3.5 | 11.3 | 0.00 | 0.00 | 0.00 | 80 | 1009.6 |
| 20260506120553 | 63 | 247 | 4.3 | 9.6 | 0.00 | 0.00 | 0.00 | 79 | 1009.7 |
| 20260506120055 | 63 | 210 | 4.3 | 10.4 | 0.00 | 0.00 | 0.00 | 79 | 1009.7 |
| 20260506115552 | 63 | 229 | 3.5 | 10.4 | 0.00 | 0.00 | 0.00 | 78 | 1009.7 |
| 20260506115052 | 64 | 217 | 4.3 | 11.3 | 0.00 | 0.00 | 0.00 | 78 | 1009.5 |
| 20260506114555 | 64 | 251 | 2.6 | 11.3 | 0.00 | 0.00 | 0.00 | 77 | 1009.4 |
| 20260506114052 | 64 | 212 | 2.6 | 10.4 | 0.00 | 0.00 | 0.00 | 76 | 1009.3 |
| 20260506113551 | 64 | 238 | 3.5 | 10.4 | 0.00 | 0.00 | 0.00 | 75 | 1009.5 |
| 20260506113053 | 65 | 277 | 4.3 | 10.4 | 0.00 | 0.00 | 0.00 | 73 | 1009.4 |
| 20260506112551 | 65 | 211 | 3.5 | 9.6 | 0.00 | 0.00 | 0.00 | 72 | 1009.1 |
| 20260506112050 | 65 | 219 | 1.7 | 8.7 | 0.00 | 0.00 | 0.00 | 71 | 1009.0 |
| 20260506111610 | 65 | 203 | 3.5 | 9.6 | 0.00 | 0.00 | 0.00 | 71 | 1009.0 |
| 20260506111050 | 65 | 173 | 0.9 | 9.6 | 0.00 | 0.00 | 0.00 | 71 | 1009.0 |
| 20260506110553 | 65 | 194 | 1.7 | 9.6 | 0.00 | 0.00 | 0.00 | 70 | 1008.8 |
| 20260506110055 | 65 | 171 | 2.6 | 8.7 | 0.00 | 0.00 | 0.00 | 70 | 1008.9 |
| 20260506105552 | 65 | 219 | 2.6 | 8.7 | 0.00 | 0.00 | 0.00 | 70 | 1008.9 |
| 20260506105051 | 66 | 233 | 2.6 | 8.7 | 0.00 | 0.00 | 0.00 | 69 | 1008.7 |
| 20260506104554 | 66 | 134 | 2.6 | 12.2 | 0.00 | 0.00 | 0.00 | 68 | 1008.6 |
| 20260506104055 | 66 | 0 | 2.6 | 12.2 | 0.00 | 0.00 | 0.00 | 66 | 1008.6 |
| 20260506103551 | 66 | 133 | 5.2 | 12.2 | 0.00 | 0.00 | 0.00 | 66 | 1008.5 |
| 20260506103104 | 66 | 230 | 0.9 | 13.0 | 0.00 | 0.00 | 0.00 | 66 | 1008.5 |
| 20260506102551 | 67 | 219 | 5.2 | 13.0 | 0.00 | 0.00 | 0.00 | 65 | 1008.5 |
| 20260506102056 | 66 | 192 | 1.7 | 9.6 | 0.00 | 0.00 | 0.00 | 66 | 1008.5 |
| 20260506101553 | 67 | 148 | 1.7 | 10.4 | 0.00 | 0.00 | 0.00 | 65 | 1008.5 |
| 20260506101051 | 67 | 123 | 3.5 | 10.4 | 0.00 | 0.00 | 0.00 | 65 | 1008.4 |
| 20260506100553 | 66 | 134 | 1.7 | 9.6 | 0.00 | 0.00 | 0.00 | 65 | 1008.3 |
| 20260506100103 | 66 | 190 | 1.7 | 7.8 | 0.00 | 0.00 | 0.00 | 65 | 1008.3 |
| 20260506095551 | 67 | 240 | 3.5 | 11.3 | 0.00 | 0.00 | 0.00 | 64 | 1008.3 |
| 20260506095055 | 66 | 135 | 0.9 | 11.3 | 0.00 | 0.00 | 0.00 | 64 | 1008.3 |
| 20260506094553 | 67 | 171 | 3.5 | 8.7 | 0.00 | 0.00 | 0.00 | 64 | 1008.2 |
| 20260506094050 | 67 | 0 | 2.6 | 10.4 | 0.00 | 0.00 | 0.00 | 64 | 1008.3 |
| 20260506093554 | 67 | 230 | 3.5 | 10.4 | 0.00 | 0.00 | 0.00 | 64 | 1008.2 |
| 20260506093058 | 67 | 167 | 1.7 | 7.8 | 0.00 | 0.00 | 0.00 | 63 | 1008.3 |
| 20260506092551 | 67 | 144 | 0.9 | 10.4 | 0.00 | 0.00 | 0.00 | 63 | 1008.2 |
| 20260506092053 | 67 | 180 | 1.7 | 10.4 | 0.00 | 0.00 | 0.00 | 63 | 1008.4 |
| 20260506091558 | 67 | 196 | 3.5 | 11.3 | 0.00 | 0.00 | 0.00 | 63 | 1008.1 |
| 20260506091053 | 67 | 248 | 1.7 | 11.3 | 0.00 | 0.00 | 0.00 | 63 | 1008.3 |
| 20260506090552 | 67 | 154 | 1.7 | 13.9 | 0.00 | 0.00 | 0.00 | 63 | 1008.3 |
| 20260506090054 | 67 | 246 | 3.5 | 13.9 | 0.00 | 0.00 | 0.00 | 62 | 1008.5 |
| 20260506085551 | 67 | 202 | 2.6 | 12.2 | 0.00 | 0.00 | 0.00 | 62 | 1008.6 |
| 20260506085051 | 67 | 169 | 3.5 | 12.2 | 0.00 | 0.00 | 0.00 | 62 | 1008.7 |
| 20260506084553 | 67 | 148 | 3.5 | 8.7 | 0.00 | 0.00 | 0.00 | 62 | 1008.7 |
| 20260506084053 | 67 | 155 | 1.7 | 7.0 | 0.00 | 0.00 | 0.00 | 62 | 1008.7 |
| 20260506083553 | 67 | 0 | 1.7 | 7.0 | 0.00 | 0.00 | 0.00 | 61 | 1008.6 |
| 20260506083115 | 67 | 205 | 1.7 | 8.7 | 0.00 | 0.00 | 0.00 | 61 | 1008.5 |
| 20260506082550 | 67 | 172 | 1.7 | 8.7 | 0.00 | 0.00 | 0.00 | 61 | 1008.5 |
| 20260506082052 | 67 | 157 | 2.6 | 9.6 | 0.00 | 0.00 | 0.00 | 60 | 1008.6 |
| 20260506081604 | 67 | 154 | 3.5 | 9.6 | 0.00 | 0.00 | 0.00 | 60 | 1008.6 |
| 20260506081052 | 68 | 125 | 2.6 | 10.4 | 0.00 | 0.00 | 0.00 | 60 | 1008.8 |
| 20260506080556 | 68 | 146 | 1.7 | 10.4 | 0.00 | 0.00 | 0.00 | 59 | 1008.6 |